Regional Weather Roundup
Issued by NWS Sioux Falls, SD

Home | Current Version | Previous Version | Graphics & Text | Print | Product List | Glossary Off
Versions: 1 2 3 4 5 6 7 8 9 10 11 12 13 14 15 16 17 18 19 20 21 22 23 24 25 26 27 28 29 30 31 32 33 34 35 36 37 38 39 40 41 42 43 44 45 46 47 48 49 50

000
ASUS43 KFSD 231102
RWRFSD

WEATHER ROUNDUP FOR SE SOUTH DAKOTA/SW MINNESOTA/NW IOWA
NATIONAL WEATHER SERVICE SIOUX FALLS SD
500 AM CST SUN NOV 23 2014

NOTE: "FAIR" INDICATES FEW OR NO CLOUDS BELOW 12,000 FEET WITH NO
SIGNIFICANT WEATHER AND OR OBSTRUCTIONS TO VISIBILITY.


SDZ038>040-050-052>070-231200-
SOUTHEAST SOUTH DAKOTA

CITY           SKY/WX    TMP DP  RH WIND       PRES   REMARKS
CHAMBERLAIN    CLOUDY    40  36  84 N15G23    29.50S
HURON          CLOUDY    35  32  88 NW7       29.47R WCI  29
MADISON        CLOUDY    34  34 100 NW3       29.43R
MITCHELL       MOCLDY    36  32  85 NW12      29.47R
SIOUX FALLS    MOCLDY    41  40  96 VRB5      29.43R FOG
WINNER         CLOUDY    42  34  73 NW17      29.53R
YANKTON        CLOUDY    45  39  81 SW6       29.44R
$$

MNZ071-072-080-081-089-090-097-098-231200-
SOUTHWEST MINNESOTA

CITY           SKY/WX    TMP DP  RH WIND       PRES   REMARKS
FAIRMONT       CLOUDY    50  46  87 S15       29.43F
JACKSON        CLOUDY    50  46  87 SW9       29.44R FOG
LUVERNE        FOG       41  39  93 NE3       29.43R VSB<1/4
MARSHALL       CLOUDY    39  36  87 CALM      29.42R
MONTEVIDEO     CLOUDY    39  36  87 SW5       29.41R
PIPESTONE      CLOUDY    39  37  93 CALM      29.42R FOG
REDWOOD FALLS  CLOUDY    41  40  96 CALM      29.41R FOG
TRACY          CLOUDY    45  43  95 SW17      29.42R FOG
WINDOM         CLOUDY    48  46  93 SW8       29.43R FOG
WORTHINGTON    CLOUDY    48  48 100 SW13      29.44R
$$

IAZ001>003-012>014-020>022-031-032-NEZ013-014-SDZ071-231200-
NORTHWEST IOWA

CITY           SKY/WX    TMP DP  RH WIND       PRES   REMARKS
CHEROKEE       CLOUDY    50  50 100 S10       29.43F FOG
DENISON        CLOUDY    52  52 100 S15G23    29.45S
ESTHERVILLE    CLOUDY    49  48  97 S16       29.42F FOG
SIOUX CITY     CLOUDY    51  49  92 SE7       29.43S
SPENCER        CLOUDY    50  48  93 S13       29.42F
$$

ABBREVIATIONS USED IN REMARKS
   TC - TEMPERATURE IN CELSIUS
  WCI - WIND CHILL INDEX
   HX - HEAT INDEX
  VSB - VISIBILITY



USA.gov is the U.S. government's official web portal to all federal, state and local government web resources and services.